C/2024 E1 ( Wierzchos )

Japanese version
Home page
Updated on April 16, 2025

---------------------------------------------------------------------

* Profile

Discovery Date March 3, 2024
Magnitude 20.4 mag
Discoverer Kacper W. Wierzchos (Mt. Lemmon Survey)

* Pictures

* Orbital Elements

Epoch 2025 May 5.0 TT = JDT 2460800.5
T 2026 Jan. 20.76857 TT                                 Pike
q   0.5659449            (2000.0)            P               Q
z  -0.0001001      Peri.  243.63551     +0.35484372     -0.17052100
 +/-0.0000081      Node   108.08114     +0.02233154     +0.98449165
e   1.0000566      Incl.   75.23870     -0.93465889     -0.04121620
From 408 observations 2024 Feb. 15-2025 Feb. 27, mean residual 0".4.

* Finding Charts

* Magnitudes Graph

        m1 = 7.0 + 5 log d + 10.0 log r

---------------------------------------------------------------------

The orbital elements are published on M.P.E.C. 2025-D254.
The charts are made with StellaNavigator Ver.11 (AstroArts).
The magnitudes graphs are made with Comet for Windows.

---------------------------------------------------------------------

Copyright(C) Seiichi Yoshida (comet@aerith.net). All rights reserved.